Regional Weather Roundup
Issued by NWS New Orleans/Baton Rouge, LA

Home | Current Version | Previous Version | Graphics & Text | Print | Product List | Glossary On
Versions: 1 2 3 4 5 6 7 8 9 10 11 12 13 14 15 16 17 18 19 20 21 22 23 24 25 26 27 28 29 30 31 32 33 34 35 36 37 38 39 40 41 42 43 44 45 46 47 48 49 50
390
ASUS44 KLIX 220901
RWRLIX
NEW ORLEANS REGIONAL WEATHER ROUNDUP
NATIONAL WEATHER SERVICE NEW ORLEANS LA
300 AM CST SAT NOV 22 2014

NOTE: "FAIR" INDICATES FEW OR NO CLOUDS BELOW 12,000 FEET WITH NO
      SIGNIFICANT WEATHER AND/OR OBSTRUCTIONS TO VISIBILITY.
      SKY/WX - SKY CONDITION AND SIGNIFICANT WEATHER.
      TMP - AIR TEMPERATURE.     DP    - DEWPOINT TEMPERATURE.
      RH  - RELATIVE HUMIDITY.   PRES  - PRESSURE.
      HI  - HEAT INDEX.          WCI   - WIND CHILL INDEX.

*  THESE STATIONS ARE NOT NWS OR FAA STATIONS AND ARE NOT UNDER
   NWS QUALITY CONTROL.

LAZ038-040-048-061>063-065>067-069-221000-
SOUTHEAST LOUISIANA

CITY           SKY/WX    TMP DP  RH WIND       PRES   REMARKS
N.O. AUDUBON   NOT AVBL
N.O. INTL ARPT CLEAR     55  50  83 E6        30.22S
N.O. LAKEFRONT CLEAR     56  52  86 E10       30.23S
N.O. DOWNTOWN*   N/A     57  48  72 NE8       30.23R
SLIDELL        CLEAR     51  46  83 NE5       30.24S
BATON ROUGE    CLEAR     50  48  93 NE5       30.23S
BOOTHVILLE     CLEAR     60  57  89 E5        30.21F
BELLE CHASSE   CLEAR     53  48  83 NE6       30.22S
BOGALUSA*        N/A     44  41  90 CALM      30.26F
NEW ROADS*     NOT AVBL
GONZALES*      NOT AVBL
HAMMOND*       CLEAR     52  46  82 CALM      30.25S
HOUMA*         MOCLDY    51  50  95 CALM      30.20S
PORT FOURCHON* NOT AVBL

$$

MSZ070-080>082-221000-
SOUTHERN MISSISSIPPI

CITY           SKY/WX    TMP DP  RH WIND       PRES   REMARKS
MCCOMB         CLEAR     51  45  79 E3        30.24F
GULFPORT       CLEAR     52  45  77 NE7       30.24F
BILOXI         NOT AVBL
PASCAGOULA     CLEAR     42  40  92 NE3       30.27S

$$

COASTAL OBSERVATIONS
LAKE AND NEARSHORE STATIONS

STATION/POSITION TIME  TEMP    WIND        PRES    WAVE
                       AIR SEA DIR/SP/G            HT/PER
                 (UTC) (F)     (DEG/KT/KT) (MB)    (FT/S)
PASCAGOULA       0800   56      50/ 11/ 14 1023.9
WAVELAND YACHT   0800   54      60/  7/  8 1023.2
GRAND ISLE       0800   62 61   80/  6/  8 1023.0
SOUTHWEST PASS   0800   69 73              1022.5
NEW CANAL        0800   55 54   70/  8/  9 1023.6
SHELL BEACH      0800   57 51   60/  7/  8 1022.9

OFFSHORE STATIONS

STATION/POSITION TIME  TEMP    WIND        PRES    WAVE
                       AIR SEA DIR/SP/G            HT/PER
                 (UTC) (F)     (DEG/KT/KT) (MB)    (FT/S)
64 S DAUPHIN ISL 0832   70 72  110/ 17/ 21 1023.9    7/ 8

$$




USA.gov is the U.S. government's official web portal to all federal, state and local government web resources and services.